Zurück zum Katalog

COSMOS 1525

AktivMilitärLEO
NORAD 14614·PAYLOAD·🇷🇺 Russia

Gestartet Jan 5, 1984 von Plesetsk Cosmodrome

Loading…

Nächste Überflüge (nächste 24 Stunden)

TLE

AktuellSource: Space-Track

Epoche: Sep 14, 2026, 17:17 UTC

1 14614U 84001D   26257.72057999 -.00000002  00000-0  89753-4 0  9998
2 14614  74.0125   0.8663 0022297 246.0159 281.5917 12.54912505955678

Verfolge COSMOS 1525 in Echtzeit mit AllMySat

Download on the App Store